Regional Weather Roundup
Issued by NWS Northern Indiana

Home | Current Version | Previous Version | Text Only | Print | Product List | Glossary Off
Versions: 1 2 3 4 5 6 7 8 9 10 11 12 13 14 15 16 17 18 19 20 21 22 23 24 25 26 27 28 29 30 31 32 33 34 35 36 37 38 39 40 41 42 43 44 45 46 47 48 49 50

000
ASUS43 KIWX 170510
RWRIWX

KIWX WEATHER ROUNDUP
NATIONAL WEATHER SERVICE NORTHERN INDIANA
100 AM EDT THU AUG 17 2017

NOTE: "FAIR" INDICATES FEW OR NO CLOUDS BELOW 12,000 FEET WITH NO
SIGNIFICANT WEATHER AND/OR OBSTRUCTIONS TO VISIBILITY.

* THESE STATIONS ARE NOT UNDER NWS QUALITY CONTROL. THEY ALSO MAY NOT
  REPORT WEATHER SUCH AS PRECIPITATION OR FOG.

INZ001>027-170600-
NORTHERN INDIANA

CITY           SKY/WX    TMP DP  RH WIND       PRES   REMARKS
GARY*          MOCLDY    81  72  74 S9        29.85S
VALPARAISO     CLOUDY    78  73  84 S6        29.88S
MICHIGAN CITY* MOCLDY    77  70  78 S5        29.87F
LAPORTE*       MOCLDY    75  71  86 S3        29.89S
KNOX*          PTCLDY    77  72  83 S8        29.88F
SOUTH BEND     MOCLDY    77  72  84 S7        29.89F
GOSHEN         MOCLDY    77  67  71 SE7       29.90F
MONTICELLO*    CLOUDY    77  73  85 S8        29.90R
LOGANSPORT*    CLOUDY    75  70  83 S5        29.91S
ROCHESTER*     CLOUDY    79  72  78 S6        29.91F
WARSAW*        CLOUDY    77  70  78 CALM      29.92S
AUBURN*        MOCLDY    73  66  78 E5        29.95S
FORT WAYNE     CLOUDY    75  68  78 SE5       29.93F
HUNTINGTON*    MOCLDY    75  70  85 SE3       29.93S
PERU/GRISSOM   PTCLDY    76  73  89 S6        29.91F
MARION*        CLOUDY    75  70  83 S3        29.94S

$$
INZ028>050-170600-
CENTRAL INDIANA

CITY           SKY/WX    TMP DP  RH WIND       PRES   REMARKS
LAFAYETTE      CLOUDY    77  73  87 SW3       29.90R
KOKOMO*        MOCLDY    75  72  90 S7        29.93F
MUNCIE*        CLOUDY    79  70  74 S7        29.94F
INDIANAPOLIS   CLOUDY    78  72  81 S13       29.90F

$$
MIZ043>046-050>051-056>058-064>065-071>073-077>080-170600-
SOUTHWEST LOWER MICHIGAN

CITY           SKY/WX    TMP DP  RH WIND       PRES   REMARKS
BATTLE CREEK   CLOUDY    75  64  68 SE13      29.93F
BENTON HARBOR  CLOUDY    78  67  68 SE9       29.85F
COLDWATER*     CLOUDY    73  62  68 SE9       29.94F
HILLSDALE*     PTCLDY    70  59  68 SE7       29.96F
HOLLAND        CLOUDY    75  68  78 SE10      29.87F
GRAND RAPIDS   MOCLDY    75  66  73 SE10      29.90F
KALAMAZOO      CLOUDY    76  64  66 SE8       29.91F
STURGIS*       CLOUDY    74  67  78 SE10G16   29.92F
THREE RIVERS*  CLOUDY    78  67  69 SE9       29.92S

$$
OHZ001>008-015>018-024>025-170600-
NORTHWEST OHIO

CITY           SKY/WX    TMP DP  RH WIND       PRES   REMARKS
WAUSEON*         N/A     72  61  68 SE7       29.96F
DEFIANCE       CLOUDY    73  63  70 SE7       29.94F
FINDLAY        PTCLDY    74  66  76 SE8       29.96F
TOLEDO EXPRESS PTCLDY    71  60  68 E5        29.96F
TOLEDO METCALF CLOUDY    70  61  73 E7        29.97F
LIMA           CLOUDY    74  69  85 S7        29.97F

$$
AND FOR LAKE MICHIGAN COASTAL AND OPEN LAKE BUOY OBSERVATIONS

STATION/POSITION TEMP    WIND        PRES    VSBY  WAVE
                 AIR SEA DIR/SP/G                  HT/PER
                 (F)     (DEG/KT/KT) (MB)    (MI)  (FT/S)
CALUMET HARBOR    80     170/ 12/ 16 1010.0F
MICHIGAN CITY     78     150/  8/ 10   N/A
BURNS HARBOR      80     180/ 11/ 19 1011.2
SAINT JOSEPH      79     180/  3/  7 1011.2
SOUTH LAKE BUOY   75 72  110/ 12/ 14 1009.4F         1/ 3
4 MI NW BRIDGMAN  78 74  190/ 12/ 14 1010.3          1
MICHIGAN CITY     78 75  170/ 12/ 16   N/A           1

$$
&&




USA.gov is the U.S. government's official web portal to all federal, state and local government web resources and services.